DW6567 Weather Reports


time (UTC)temp
C
wind
direction
speed
KPH
gust
KPH
rain 1hr
cm
rain 24hr
cm
rain mn
cm
humidity
%
barometer
mb
20260507160020 12 270 3.2 9.7 0.00 0.00 0.00 51 1010.6
20260507153017 11 292 3.2 8.0 0.00 0.00 0.00 51 1010.8
20260507150022 10 22 1.6 11.3 0.00 0.00 0.00 57 1010.9
20260507143021 10 315 3.2 9.7 0.00 0.00 0.00 61 1011.0
20260507140043 9 270 3.2 9.7 0.00 0.00 0.00 67 1011.2
20260507133017 8 337 3.2 8.0 0.00 0.00 0.00 77 1011.0
20260507130021 7 315 3.2 9.7 0.00 0.00 0.00 89 1010.9
20260507123021 7 292 3.2 8.0 0.00 0.00 0.00 95 1010.6
20260507120021 6 315 1.6 6.4 0.00 0.00 0.00 97 1010.8
20260507113021 6 0 1.6 4.8 0.00 0.00 0.00 97 1010.5
20260507110025 6 22 1.6 6.4 0.00 0.00 0.00 97 1010.2
20260507103021 6 292 1.6 6.4 0.00 0.00 0.00 97 1009.7
20260507100022 6 292 1.6 4.8 0.00 0.00 0.00 97 1009.4
20260507093020 6 270 1.6 3.2 0.00 0.00 0.00 97 1009.1
20260507090016 6 270 3.2 4.8 0.00 0.00 0.00 97 1008.9
20260507083020 7 292 1.6 6.4 0.00 0.00 0.00 97 1008.9
20260507080016 7 292 1.6 4.8 0.00 0.00 0.00 97 1008.9
20260507073024 7 292 1.6 6.4 0.00 0.00 0.00 97 1009.0
20260507070021 7 292 1.6 4.8 0.00 0.00 0.00 96 1009.4
20260507063020 7 315 3.2 6.4 0.00 0.00 0.00 96 1008.6
20260507060020 7 315 1.6 6.4 0.00 0.00 0.00 95 1008.7
20260507053020 8 315 1.6 4.8 0.00 0.00 0.00 95
20260507050020 8 315 1.6 6.4 0.00 0.00 0.00 95 1008.9
20260507043022 8 315 1.6 4.8 0.00 0.00 0.00 94 1008.9
20260507040026 8 315 1.6 6.4 0.00 0.00 0.00 95 1008.8
20260507033020 9 315 1.6 6.4 0.00 0.00 0.00 95 1008.5
20260507030042 10 67 1.6 4.8 0.00 0.00 0.00 95 1009.3
20260507023022 10 225 1.6 4.8 0.00 0.00 0.00 94 1009.3
20260507020022 11 247 1.6 6.4 0.00 0.00 0.00 94 1008.9
20260507013017 12 247 1.6 6.4 0.00 0.00 0.00 95
20260507010021 13 247 1.6 6.4 0.00 0.00 0.00 96
20260507003021 13 202 1.6 4.8 0.00 0.00 0.00 97 1007.3
20260507000022 13 202 3.2 6.4 0.00 0.00 0.00 97 1007.0
20260506233016 13 202 3.2 6.4 0.00 0.00 0.00 97 1006.5
20260506230021 14 202 3.2 8.0 0.00 0.00 0.00 97 1006.4
20260506223021 14 202 3.2 6.4 0.00 0.00 0.00 97
20260506220021 14 202 1.6 4.8 0.00 0.00 0.00 97 1005.9
20260506213021 14 180 3.2 6.4 0.00 0.00 0.00 97
20260506210106 14 202 3.2 8.0 0.00 0.00 0.00 96
20260506203041 14 202 3.2 9.7 0.00 0.00 0.00 96 1005.4
20260506200021 14 202 4.8 9.7 0.00 0.00 0.00 96 1005.9
20260506193021 14 180 4.8 8.0 0.00 0.00 0.00 96 1006.3
20260506190056 14 202 3.2 9.7 0.00 0.00 0.00 95 1006.4
20260506183022 14 180 3.2 9.7 0.00 0.00 0.00 95 1006.4
20260506180015 14 180 4.8 14.5 0.00 0.00 0.00 94 1006.7
20260506173044 14 180 3.2 9.7 0.00 0.00 0.00 94 1006.7
20260506170015 -17 180 3.2 8.0 0.00 0.00 0.00 94
20260506163020 15 180 1.6 6.4 0.00 0.00 0.00 92 1007.7